Regional Weather Roundup
Issued by NWS

Home | Current Version | Previous Version | Graphics & Text | Print | Product List | Glossary On
Versions: 1 2 3 4 5 6 7 8 9 10 11 12 13 14 15 16 17 18 19 20 21 22 23 24 25 26 27 28 29 30 31 32 33 34 35 36 37 38 39 40 41 42 43 44 45 46 47 48 49 50
000
ASUS43 KIND 220409
RWRIN

WEATHER ROUNDUP FOR INDIANA
NATIONAL WEATHER SERVICE INDIANAPOLIS IN
1200 AM EDT WED OCT 22 2014

NOTE: "FAIR" INDICATES FEW OR NO CLOUDS BELOW 12,000 FEET WITH NO
SIGNIFICANT WEATHER AND/OR OBSTRUCTIONS TO VISIBILITY.

* - STATION DOES NOT REPORT WEATHER SUCH AS PRECIPITATION OR FOG.

+ - STATION NOT QUALITY CONTROLLED BY THE NATIONAL WEATHER SERVICE.
    USE DATA WITH CAUTION...ESPECIALLY DEWPOINT AND RELATIVE
    HUMIDITY OBSERVATIONS.

INZ001>003-010>013-019-020-220500-
NORTHWEST INDIANA

CITY           SKY/WX    TMP DP  RH WIND       PRES   REMARKS
GARY /AIRPORT/ CLOUDY    50  38  63 E7        30.26S
KNOX *+        CLEAR     38  34  87 NE6       30.25S
LA PORTE +     CLEAR     37  36  96 CALM      30.26S
MICHIGAN CITY+ CLEAR     37  36  93 CALM      30.27R
MONTICELLO +   CLOUDY    47  39  72 NE3       30.23S
RENSSELAER +   CLEAR     43  39  87 N5        30.25S
VALPARAISO     CLEAR     39  35  86 NE5       30.26S

$$

LMZ046-743>745-220500-
SOUTHERN LAKE MICHIGAN

STATION/POSITION TIME  TEMP WIND        PRES
                       AIR  DIR/SP/G
                 (UTC) (F)  (DEG/KT/KT) (MB)
MICHIGAN CITY    0400   44  110/  7/  7   N/A

$$

INZ004-005-014>016-021>024-220500-
NORTH CENTRAL INDIANA

CITY           SKY/WX    TMP DP  RH WIND       PRES   REMARKS
GOSHEN         CLEAR     38  36  92 CALM      30.24S
LOGANSPORT +   PTCLDY    45  34  65 NE3       30.25R
PERU/GRISSOM   PTCLDY    44  38  78 NE8       30.23S
ROCHESTER +    CLEAR     45  37  76 CALM      30.25S
SOUTH BEND     CLEAR     38  35  89 CALM      30.26S
WARSAW +       CLEAR     39  37  93 N3        30.24S

$$

INZ006>009-017-018-025>027-220500-
NORTHEAST INDIANA

CITY           SKY/WX    TMP DP  RH WIND       PRES   REMARKS
ANGOLA *+      PTCLDY    39  21  48 N3        30.24S
AUBURN +       CLOUDY    43  34  70 N6        30.24S
FORT WAYNE     CLOUDY    46  35  65 NE12      30.24R
HUNTINGTON +   CLOUDY    44  37  77 CALM      30.23R

$$

INZ028-029-035-036-043>045-051>053-220500-
WEST CENTRAL INDIANA

CITY           SKY/WX    TMP DP  RH WIND       PRES   REMARKS
GREENCASTLE +  CLOUDY    45  39  81 N8        30.22S
LAFAYETTE      CLEAR     41  37  86 NE3       30.24R
TERRE HAUTE    CLEAR     45  40  82 N7        30.22S

$$

INZ030>032-037>040-046>048-054>057-064-065-220500-
CENTRAL INDIANA

CITY           SKY/WX    TMP DP  RH WIND       PRES   REMARKS
CP ATTERBURY + CLEAR     43  39  87 CALM      30.21R
FRANKFORT +    CLEAR     42  42 100 N5        30.24S
INDIANAPOLIS   MOCLDY    49  39  68 NE12      30.20R
-EAGLE CREEK   CLOUDY    49  40  71 NE6       30.20S
KOKOMO *+      CLOUDY    48  36  61 NE9       30.24R
MARION +       CLOUDY    45  35  66 NE6       30.23R
MT COMFORT *+  CLOUDY    46  36  66 NE9       30.21S
SHELBYVILLE    CLOUDY    48  39  71 NE6       30.20R
ZIONSVILLE +   PTCLDY    47  38  73 NE7       30.22S

$$

INZ033-034-041-042-049-050-058-059-220500-
EAST CENTRAL INDIANA

CITY           SKY/WX    TMP DP  RH WIND       PRES   REMARKS
MUNCIE         CLOUDY    47  37  68 N9        30.21S

$$

INZ060-061-067>069-081>083-085>088-220500-
SOUTHWEST INDIANA

CITY           SKY/WX    TMP DP  RH WIND       PRES   REMARKS
EVANSVILLE     CLEAR     49  40  71 N6        30.19S
HUNTINGBURG *+ CLEAR     46  39  76 NE3       30.19S
WASHINGTON +   CLEAR     46  43  90 N7        30.19S

$$

INZ062-063-066-070>080-084-089>092-220500-
SOUTH CENTRAL AND SOUTHEAST INDIANA

CITY           SKY/WX    TMP DP  RH WIND       PRES   REMARKS
BLOOMINGTON    PTCLDY    46  42  86 N6        30.20R

$$




USA.gov is the U.S. government's official web portal to all federal, state and local government web resources and services.